Regional Weather Roundup
Issued by NWS

Home | Current Version | Previous Version | Text Only | Print | Product List | Glossary On
Versions: 1 2 3 4 5 6 7 8 9 10 11 12 13 14 15 16 17 18 19 20 21 22 23 24 25 26 27 28 29 30 31 32 33 34 35 36 37 38 39 40 41 42 43 44 45 46 47 48 49 50
000
ASUS43 KDTX 300801
RWRMI
MICHIGAN HOURLY REGIONAL WEATHER ROUNDUP
NATIONAL WEATHER SERVICE DETROIT/PONTIAC MI
400 AM EDT FRI SEP 30 2016

NOTE: "FAIR" INDICATES FEW OR NO CLOUDS BELOW 12,000 FEET WITH NO
SIGNIFICANT WEATHER AND/OR OBSTRUCTION TO VISIBILITY.

MIZ047>049-052>055-059>063-066>070-074>076-081>083-300900-
SOUTHEAST LOWER MICHIGAN

CITY           SKY/WX    TMP DP  RH WIND       PRES   REMARKS
ADRIAN         LGT RAIN  61  61 100 E14       30.13R
ALMA           LGT RAIN  59  59  99 NE10G20   30.22F
ANN ARBOR      CLOUDY    59  59 100 NE12G18   30.13F
BAD AXE        CLOUDY    59  55  88 E8        30.26S
CARO           CLOUDY    58  57  96 NE6       30.22S
DETROIT CITY   LGT RAIN  59  59 100 E13       30.17S
DETROIT        LGT RAIN  62  60  93 E17G23    30.14F
FLINT          LGT RAIN  59  57  93 NE9       30.19F
GROSSE ILE     LGT RAIN  62  60  93 MISG      30.13S
HILLSDALE      DRIZZLE   59  57  94 NE8       30.13R
HOWELL         RAIN      59  58  97 NE9       30.16F

CITY           SKY/WX    TMP DP  RH WIND       PRES   REMARKS
JACKSON        CLOUDY    59  59 100 NE10      30.14F
LAMBERTVILLE   CLOUDY    64  60  87 E9G16     30.11F
LANSING        LGT RAIN  59  56  89 NE8       30.18F
LAPEER         DRIZZLE   57  57 100 NE6       30.20S
MASON          RAIN      58  57  96 NE8       30.16F
MONROE         CLOUDY    63  62  97 E9G22     30.12R
MT. CLEMENS    LGT RAIN  60  59  97 E14       30.16S
PONTIAC        LGT RAIN  58  56  93 E10G20    30.16F
PORT HURON     CLOUDY    57  57 100 E10       30.21R
TRI CITIES     CLOUDY    60  58  92 NE10      30.24F
MIDLAND        DRIZZLE   58  58  97 NE7       30.24F
TROY           RAIN      60  58  92 NE10G17   30.19S
SAGINAW HB     DRIZZLE   59  55  88 NE9       30.21F
$$
MIZ043>046-050>051-056>058-064>065-071>073-077>080-300900-
SOUTHWEST LOWER MICHIGAN

CITY           SKY/WX    TMP DP  RH WIND       PRES   REMARKS
BATTLE CREEK   CLOUDY    59  59 100 NE12      30.14F
BENTON HARBOR  CLOUDY    61  56  83 NE8       30.14F
BIG RAPIDS     LGT RAIN  58  57  96 E8        30.25S
COLDWATER      RAIN      60  59  99 NE12      30.13S
FREMONT        RAIN      58  57  97 NE7       30.23S
HOLLAND        CLOUDY    60  56  86 E12       30.18S
GRAND RAPIDS   CLOUDY    58  56  93 NE14      30.20S FOG
IONIA          LGT RAIN  57  56  95 NE10      30.19F
KALAMAZOO      CLOUDY    60  56  86 NE8       30.15F FOG
LUDINGTON      CLOUDY    60  55  84 NE10G16   30.25S
MARSHALL       CLOUDY    59  58  97 NE5       30.14F FOG
MOUNT PLEASANT RAIN      58  57  97 NE8       30.23F
MUSKEGON       CLOUDY    61  57  87 NE12G20   30.21F
SOUTH HAVEN    CLOUDY    61  58  92 NE9       30.16F
$$
MIZ016>042-300900-
NORTHERN LOWER MICHIGAN

CITY           SKY/WX    TMP DP  RH WIND       PRES   REMARKS
ALPENA         CLOUDY    61  54  77 E10       30.34F
BEAVER ISLAND  PTCLDY    59  56  87 NE8       30.35F
BELLAIRE       CLOUDY    61  54  77 NE7       30.31F
CADILLAC       CLOUDY    56  55  94 NE12      30.28R
CHARLEVOIX     CLOUDY    61  54  77 E13       30.35S
FRANKFORT      CLOUDY    62  54  74 E5        30.28S
GAYLORD        CLOUDY    58  53  84 E8        30.33F
GRAYLING       CLOUDY    58  55  89 NE12G17   30.32R
HARBOR SPRINGS MOCLDY    60  55  84 NE12      30.33F
HOUGHTON LAKE  CLOUDY    57  55  93 NE10      30.30S FOG
MANISTEE       CLOUDY    60  54  80 E7        30.27S
OSCODA         CLOUDY    61  54  77 E13G21    30.29F
PELLSTON       CLOUDY    61  53  75 E10       30.36S
ROGERS CITY    CLOUDY    61  55  82 E8        30.36F
TRAVERSE CITY  CLOUDY    62  54  74 E7        30.29S
$$
MIZ007>008-015-300900-
EASTERN UPPER MICHIGAN

CITY           SKY/WX    TMP DP  RH WIND       PRES   REMARKS
KINROSS        CLEAR     54  50  86 NE8       30.39F
MACKINAC ISLAN CLOUDY    59  54  83 NE10      30.36F
NEWBERRY       CLEAR     51  49  93 N6        30.39S
S. S. MARIE    CLEAR     56  49  77 E6        30.39F
MUNISING         N/A     51  49  92 SW5       30.39S
$$
MIZ004>006-011>014-085-300900-
CENTRAL UPPER MICHIGAN

CITY           SKY/WX    TMP DP  RH WIND       PRES   REMARKS
MANISTIQUE     CLEAR     53  50  90 NE6       30.37S
ESCANABA       CLEAR     55  53  93 N7        30.36F
MENOMINEE      MOCLDY    54  52  93 N8        30.34F
SAWYER-GWINN   CLEAR     53  52  96 N8        30.41S
$$
MIZ001>003-009>011-084-300900-
WESTERN UPPER MICHIGAN

CITY           SKY/WX    TMP DP  RH WIND       PRES   REMARKS
IRON MOUNTAIN  CLEAR     49  46  90 NW8       30.38F
HOUGHTON       CLEAR     53  48  83 NE7       30.42F
COPPER HARBOR    N/A     57  56  96 CALM      30.43S
IRONWOOD       CLOUDY    51  50  96 NE5       30.45S
$$

ABBREVIATIONS USED IN REMARKS
   TC - TEMPERATURE IN CELSIUS
  WCI - WIND CHILL INDEX
   HX - HEAT INDEX
  VSB - VISIBILITY




USA.gov is the U.S. government's official web portal to all federal, state and local government web resources and services.